Theta_e
315 314 314 314 313 310 307 302 301 300 300 299 299 299 299 300 299 300 303 303 307 311 316 318 319 320 321 323 322 318 319 317 316 316 318 319 319 318 318 319 321 323 325
313 311 311 310 309 306 303 301 300 300 299 299 298 298 298 299 299 299 302 305 306 311 314 317 319 320 323 318 314 314 318 315 313 314 315 315 316 315 315 317 318 319 320
310 309 309 307 305 302 301 300 299 299 298 297 297 297 297 298 298 298 300 304 309 310 316 316 317 321 319 315 311 314 315 314 310 312 311 311 312 313 315 314 315 316 317
308 306 306 305 302 300 299 298 297 297 297 297 297 297 297 298 298 299 300 303 309 310 309 311 313 316 316 310 307 310 313 311 308 310 309 310 312 313 313 312 313 314 314
306 304 304 303 300 298 298 298 297 297 296 296 295 296 297 297 297 297 300 304 305 306 306 302 301 303 304 303 305 308 310 307 307 308 308 309 310 309 309 310 311 312 313
305 303 302 302 299 298 297 297 296 296 297 296 291 293 296 296 297 297 299 300 299 297 298 298 299 297 298 299 302 305 305 305 306 306 306 307 307 307 308 308 309 310 311
304 303 302 300 298 297 297 296 296 294 294 295 294 293 293 294 293 295 298 297 295 295 295 296 297 297 296 299 301 304 305 305 304 304 304 304 304 305 306 307 308 308 309
304 302 301 300 298 297 297 296 295 294 295 294 294 294 291 291 292 292 294 294 294 294 293 292 293 293 295 298 301 302 302 302 302 301 301 301 302 303 304 305 306 307 307
303 301 301 300 298 298 296 296 295 295 293 293 294 296 291 293 291 291 291 292 292 292 292 292 291 292 293 296 299 296 296 296 295 297 298 299 300 301 302 303 303 304 305
302 301 300 300 299 297 297 297 296 296 297 292 292 291 293 295 292 288 291 291 291 290 291 291 291 291 292 294 295 293 292 291 292 293 294 295 297 298 300 301 302 302 303
300 300 299 299 298 297 297 297 295 295 296 296 293 291 291 291 292 294 289 288 290 291 292 291 291 291 291 292 294 292 288 289 290 291 291 292 294 296 297 299 300 301 302
298 298 298 298 298 297 296 296 296 295 295 295 296 294 292 291 290 291 291 290 289 290 290 290 289 290 291 291 291 289 286 287 288 289 290 291 292 293 295 296 298 299 300
296 296 297 297 296 296 296 296 295 294 294 293 295 294 295 295 294 293 293 290 288 288 287 289 290 290 290 291 291 286 283 285 286 288 289 290 291 291 292 294 296 297 297
297 297 297 296 296 296 295 295 294 294 294 293 293 293 293 293 292 292 291 290 286 286 286 287 289 289 290 290 290 284 286 283 285 287 288 289 289 290 291 293 294 295 296
297 297 296 295 295 295 294 294 293 292 292 293 292 293 291 292 292 292 292 292 293 287 285 286 285 288 289 289 287 286 285 283 284 286 287 287 288 289 290 292 293 294 295
295 295 295 294 294 294 293 293 292 292 291 291 291 291 291 291 290 290 290 290 291 292 290 288 286 287 288 286 286 285 285 281 283 285 285 286 287 288 290 291 291 292 293
293 293 294 293 293 293 292 291 291 291 289 289 289 289 289 290 289 289 288 288 287 288 289 282 285 285 285 284 283 283 284 284 284 283 284 285 287 288 289 289 289 290 291
291 292 292 292 292 292 291 290 289 289 288 288 288 287 287 286 287 287 286 285 284 284 286 282 280 281 283 284 283 282 281 281 283 283 284 285 287 287 287 287 288 288 289
290 290 289 290 290 290 289 289 289 289 288 288 288 286 286 285 285 285 285 284 284 281 284 284 279 280 280 280 279 281 281 282 281 283 284 285 285 286 286 286 287 287 287
288 289 289 288 289 289 288 288 286 287 288 287 287 286 286 284 284 284 283 283 283 282 281 281 281 277 278 279 280 280 279 281 281 282 282 282 283 284 284 285 285 285 285
286 286 287 287 287 287 287 287 286 285 286 285 285 284 285 285 285 286 283 284 283 282 281 280 280 277 277 276 277 280 279 281 281 282 281 282 282 283 284 284 283 283 284
285 286 285 285 284 285 287 289 287 285 285 284 284 284 284 284 284 287 286 286 284 282 280 280 279 277 278 278 279 279 278 278 278 282 281 281 282 282 282 282 283 284 284
284 284 285 285 285 286 287 288 288 286 284 284 284 283 283 282 283 283 285 286 284 285 284 282 280 279 278 279 280 278 278 278 278 280 280 277 280 279 281 281 283 284 284
283 283 283 284 285 284 286 287 287 286 285 284 285 284 283 282 282 281 282 282 282 282 282 281 281 281 281 281 281 280 279 279 279 279 279 273 278 278 281 281 283 283 284
281 281 282 283 283 284 286 286 286 284 284 284 284 284 284 282 283 284 281 281 280 280 283 282 282 282 283 283 281 280 277 276 275 275 277 275 276 276 278 279 281 282 282
277 278 280 282 283 283 285 286 285 285 284 284 284 283 283 283 284 283 281 281 278 278 279 279 279 281 282 281 281 280 279 276 275 273 276 274 275 275 274 278 279 280 279
Wind_Speed
10 10 9 9 8 7 7 6 5 5 4 3 1 1 2 1 1 0 1 4 5 3 5 6 8 8 9 10 12 11 11 12 11 10 10 10 11 10 12 10 11 13 13
11 11 10 9 8 7 6 6 6 5 5 4 4 3 3 2 2 2 2 3 5 4 5 6 8 9 13 11 8 7 13 11 9 9 10 9 10 10 9 11 12 13 13
13 12 10 9 8 7 8 6 6 5 5 4 4 3 3 2 3 4 3 3 4 4 4 5 7 10 12 10 6 6 10 11 7 8 8 7 8 7 10 9 11 11 12
15 13 11 10 9 8 8 7 7 6 5 4 4 3 2 2 2 3 3 4 4 5 8 10 7 5 10 8 4 5 7 8 5 7 6 6 7 8 8 9 10 10 10
17 13 11 10 11 9 8 8 8 8 6 5 4 3 2 3 3 3 5 5 5 4 4 9 12 11 7 3 3 3 6 5 5 6 6 6 8 8 7 7 8 10 10
17 14 11 12 11 9 8 8 9 7 6 6 5 3 2 2 2 4 5 5 5 5 4 4 2 4 6 2 2 3 4 4 5 6 5 8 7 7 9 9 9 10 10
19 16 11 12 12 12 12 12 8 10 6 7 7 4 3 3 4 3 4 5 5 5 4 3 2 2 2 4 3 4 4 5 6 6 6 6 7 7 8 9 10 10 10
17 15 15 14 16 12 14 15 13 9 7 10 6 5 5 4 4 5 5 5 6 4 4 4 3 3 2 2 4 7 6 5 6 6 7 7 7 7 8 9 9 10 11
16 17 17 14 14 12 12 14 15 16 10 10 11 4 4 5 7 6 8 7 8 5 4 5 4 5 5 4 6 7 7 7 6 6 6 7 8 8 8 8 9 9 10
17 17 16 15 15 12 12 12 12 12 11 10 7 7 4 1 5 6 6 9 9 8 7 5 5 6 7 6 6 7 6 4 5 5 6 7 8 8 9 10 10 10 10
16 16 16 16 15 12 13 14 14 14 11 9 9 6 7 4 4 2 5 7 8 9 7 7 6 6 7 8 8 8 3 4 6 6 6 6 8 9 9 10 10 10 11
11 16 16 16 15 14 15 14 14 15 13 10 10 9 8 7 8 5 3 6 8 8 7 6 6 7 7 7 7 8 3 3 3 6 5 6 7 7 8 9 11 11 11
9 14 17 16 14 17 16 15 16 16 16 13 13 10 8 7 5 8 6 5 4 4 6 7 6 7 7 7 7 6 1 4 5 5 6 8 8 7 8 9 10 11 11
11 14 14 15 17 17 16 15 13 13 15 14 17 12 9 8 7 6 6 7 4 5 5 6 8 8 8 8 8 7 4 3 8 8 8 8 8 8 9 10 10 11 12
10 12 14 16 17 17 16 16 13 15 15 15 14 13 10 8 8 8 7 6 6 7 10 10 7 11 8 8 9 8 5 3 8 9 10 8 8 9 10 11 12 12 13
12 12 13 15 16 17 17 17 15 14 16 13 12 15 13 10 9 9 8 8 7 6 6 5 9 8 10 8 9 7 6 4 10 10 10 10 10 11 11 11 13 13 13
13 13 12 13 15 16 16 17 18 17 18 17 15 15 16 14 10 10 9 8 7 6 5 3 6 8 12 11 8 8 6 7 6 9 11 11 12 13 11 11 13 13 14
12 13 13 13 13 15 16 18 19 17 18 20 19 18 18 12 16 12 10 12 10 9 6 6 7 8 10 11 9 8 6 6 6 8 11 13 14 14 12 13 14 14 16
13 12 12 13 14 15 16 17 18 19 19 19 19 19 19 17 17 13 14 12 10 7 9 8 5 5 4 7 8 8 8 8 7 10 13 14 14 13 12 15 15 15 17
14 14 13 12 14 15 15 15 16 18 19 18 19 19 19 20 20 18 15 14 10 9 8 8 8 6 7 7 7 8 8 7 7 7 9 10 10 12 15 17 17 17 16
11 12 14 13 11 13 12 15 15 17 19 18 18 17 19 19 25 21 14 15 14 11 8 9 8 7 8 7 11 8 7 5 6 5 5 5 5 5 6 11 13 13 13
12 12 12 13 14 10 18 21 19 17 18 19 19 19 18 20 21 27 29 26 23 18 15 11 9 11 12 9 9 8 6 4 2 3 2 5 5 7 8 8 15 16 18
12 13 13 12 14 16 21 21 24 18 16 18 20 18 17 15 20 20 28 27 28 29 24 16 16 13 11 10 11 10 8 6 4 3 2 8 5 9 7 9 19 19 19
14 13 14 14 14 12 21 24 25 18 19 20 20 20 19 20 20 21 20 20 20 19 19 12 12 10 8 10 10 8 8 6 4 5 4 5 4 7 6 9 19 20 20
15 16 16 16 15 16 21 23 20 15 19 21 18 18 19 20 25 34 21 21 18 16 21 23 18 17 17 19 14 9 8 7 5 4 6 6 6 5 8 10 10 15 15
17 15 17 16 18 18 23 23 20 13 17 15 16 17 23 20 25 32 20 20 19 19 18 17 14 17 18 16 19 11 9 9 6 3 6 6 3 2 5 5 6 7 9
Wind_Direction
192 190 193 189 188 181 182 178 168 163 154 134 125 132 110 90 71 143 115 338 317 233 174 147 146 133 134 117 95 92 97 75 70 73 72 66 57 53 45 37 42 41 40
193 192 191 193 188 188 182 180 172 169 166 165 166 175 166 188 176 169 163 131 318 333 173 149 152 144 110 95 96 114 99 83 71 77 67 63 57 51 50 46 44 39 36
196 194 191 191 189 186 178 173 167 171 174 174 172 179 173 179 173 160 169 153 145 16 56 129 136 151 129 105 87 110 111 86 74 81 70 66 64 57 54 40 39 37 38
197 195 193 194 184 181 182 181 175 177 182 183 175 163 192 174 154 158 163 162 148 121 69 57 66 73 109 93 89 118 101 89 83 78 70 67 65 59 43 31 29 30 32
197 196 197 193 180 183 187 184 183 188 178 173 162 153 148 149 155 174 153 151 116 128 121 68 57 50 62 55 73 97 85 82 87 74 59 62 58 40 31 28 30 30 24
197 199 197 188 183 185 190 191 185 183 183 166 148 135 133 157 163 178 162 149 129 128 131 133 139 75 44 26 73 95 105 103 94 76 66 54 41 24 18 15 16 15 11
194 196 196 191 188 189 188 189 180 176 173 171 140 131 126 181 203 192 186 165 157 165 152 160 163 162 111 62 91 107 121 102 74 67 51 33 23 13 11 11 5 3 1
199 196 192 191 190 188 191 187 182 174 182 186 185 159 179 184 209 211 198 192 183 181 181 182 160 166 178 158 130 108 84 85 66 43 25 12 10 8 359 358 354 354 350
204 201 199 191 192 194 191 189 187 184 178 191 208 215 167 214 157 182 205 198 192 197 185 174 178 165 169 157 157 114 105 76 43 22 9 360 355 352 351 346 343 342 342
215 208 203 203 196 193 197 192 193 197 185 180 198 233 269 61 190 173 212 205 200 199 199 195 190 181 175 169 163 112 100 72 41 14 355 347 345 343 341 336 334 332 335
223 219 214 207 202 205 203 197 193 197 199 194 195 167 205 205 244 199 164 189 217 217 206 200 185 186 184 174 173 143 75 34 5 357 347 340 334 330 330 326 323 326 330
215 214 212 209 207 205 203 200 199 202 201 206 199 195 183 177 191 188 169 172 197 193 206 199 202 189 182 184 183 138 133 21 357 330 314 312 310 314 316 316 317 323 326
220 222 215 213 211 206 204 200 198 201 203 204 204 202 204 210 182 196 195 152 170 158 187 201 197 191 186 187 173 201 170 335 317 295 292 299 302 305 307 307 314 319 323
231 225 219 222 218 214 212 206 206 207 205 209 208 208 201 206 199 191 176 154 168 187 187 165 188 196 189 189 167 176 228 282 302 291 288 293 296 302 303 304 308 309 313
253 236 224 217 218 221 216 209 212 210 209 207 210 206 207 201 198 198 193 187 180 184 209 189 178 196 194 184 182 203 226 245 275 279 287 283 286 288 286 290 299 311 315
252 240 232 223 222 217 215 213 214 214 210 210 211 206 204 202 198 200 195 194 200 201 205 170 202 177 191 193 177 218 228 243 249 260 268 269 269 275 279 293 307 306 310
275 253 239 227 222 218 217 221 222 215 214 211 208 209 208 201 198 200 194 194 191 183 181 149 183 175 189 194 202 215 227 235 237 239 252 262 272 273 282 292 289 294 295
288 270 255 242 231 224 219 219 221 221 216 214 208 207 209 196 204 197 194 192 187 180 159 157 182 181 194 205 221 221 226 238 241 246 248 259 264 269 280 283 283 289 290
307 281 256 253 243 232 226 223 224 223 222 222 217 213 208 198 202 198 197 195 192 181 181 146 149 176 189 194 207 228 232 237 241 245 249 257 260 263 272 273 277 282 286
313 300 278 250 253 246 235 227 226 230 227 224 221 216 213 207 206 197 198 197 189 184 186 171 150 165 182 181 204 207 208 219 232 220 233 239 248 258 266 271 277 277 286
313 296 286 277 256 249 246 233 228 227 229 226 224 219 219 213 210 203 194 191 185 183 193 194 177 168 180 175 198 185 206 213 245 237 242 225 251 267 277 281 276 283 286
313 307 291 280 270 256 247 239 234 234 226 227 224 220 216 212 207 204 202 196 191 181 186 196 199 195 192 189 179 182 177 177 233 155 257 284 283 289 291 282 283 290 292
311 304 297 275 267 265 262 251 240 238 231 230 227 223 215 214 202 199 204 199 201 200 192 189 196 198 188 186 173 174 174 175 201 160 254 284 272 268 261 266 270 272 273
307 307 302 291 276 260 256 256 253 243 238 235 232 224 219 214 206 196 191 195 198 200 194 188 199 186 183 171 182 172 164 188 231 262 255 260 283 256 258 262 267 268 266
303 304 294 290 281 273 261 251 248 243 239 238 231 228 227 223 207 199 190 195 192 194 191 188 187 180 168 172 168 152 160 168 215 248 198 233 267 272 278 271 263 261 257
292 290 287 281 275 274 269 259 249 239 239 234 230 227 221 223 212 203 197 193 191 188 177 174 178 176 174 179 182 179 162 181 181 222 216 203 227 288 300 255 245 233 271